.
WxDataArchive / Data Records for 2014-01-25
2014-01-24 January 2014 2014-01-26

Data Records for Saturday, 25 January 2014

Time	Temp	Chill	HIndex	Humid	Dewpt	 Wind 	HiWind	WindDir	Rain 	Barom 
-----	----	-----	------	-----	-----	------	------	-------	-----	----- 
00:00	18.8	18.8	18.8	85	15.1	2	7	248	0.00	29.667 
00:05	18.8	18.8	18.8	85	15.1	3	11	248	0.00	29.667 
00:10	18.8	18.8	18.8	86	15.3	3	12	248	0.00	29.667 
00:15	18.8	18.8	18.8	86	15.3	3	9	248	0.00	29.649 
00:20	18.8	18.8	18.8	86	15.3	3	11	248	0.00	29.649 
00:25	18.9	18.9	18.9	86	15.4	3	10	248	0.00	29.649 
00:30	18.9	18.9	18.9	86	15.4	3	11	248	0.00	29.637 
00:35	18.9	12.9	18.9	85	15.2	4	11	248	0.00	29.637 
00:40	19.1	11.9	19.1	85	15.3	5	13	248	0.00	29.637 
00:45	19.1	19.1	19.1	85	15.3	3	6	248	0.00	29.621 
00:50	19.1	13.2	19.1	85	15.3	4	12	248	0.00	29.621 
00:55	19.2	19.2	19.2	85	15.4	3	9	248	0.00	29.621 
01:00	19.2	13.3	19.2	85	15.4	4	15	248	0.00	29.614 
01:05	19.4	19.4	19.4	84	15.4	3	12	248	0.00	29.614 
01:10	19.4	13.5	19.4	85	15.6	4	9	248	0.00	29.614 
01:15	19.4	19.4	19.4	85	15.6	2	6	248	0.00	29.591 
01:20	19.5	19.5	19.5	85	15.7	3	10	248	0.00	29.591 
01:25	19.5	13.6	19.5	85	15.7	4	11	248	0.00	29.591 
01:30	19.5	19.5	19.5	85	15.7	3	10	248	0.00	29.574 
01:35	19.5	13.6	19.5	85	15.7	4	7	248	0.00	29.574 
01:40	19.5	13.6	19.5	85	15.7	4	10	248	0.00	29.574 
01:45	19.5	13.6	19.5	85	15.7	4	11	248	0.00	29.563 
01:50	19.5	13.6	19.5	85	15.7	4	13	248	0.00	29.563 
01:55	19.5	19.5	19.5	86	16.0	3	10	248	0.00	29.563 
02:00	19.7	19.7	19.7	86	16.2	3	9	248	0.00	29.551 
02:05	19.7	12.6	19.7	86	16.2	5	10	248	0.00	29.551 
02:10	19.7	12.6	19.7	86	16.2	5	12	248	0.00	29.551 
02:15	19.7	19.7	19.7	86	16.2	3	10	248	0.00	29.542 
02:20	19.9	19.9	19.9	86	16.4	3	12	248	0.00	29.542 
02:25	19.9	14.1	19.9	86	16.4	4	10	248	0.00	29.542 
02:30	19.9	19.9	19.9	86	16.4	3	9	248	0.00	29.532 
02:35	20.0	14.2	20.0	86	16.5	4	14	248	0.00	29.532 
02:40	20.2	20.2	20.2	85	16.4	3	10	248	0.00	29.532 
02:45	20.2	20.2	20.2	85	16.4	3	9	248	0.00	29.522 
02:50	20.3	14.6	20.3	85	16.5	4	13	248	0.00	29.522 
02:55	20.3	13.3	20.3	85	16.5	5	15	248	0.00	29.522 
03:00	20.5	20.5	20.5	86	17.0	3	15	248	0.00	29.512 
03:05	20.5	20.5	20.5	86	17.0	3	8	248	0.00	29.512 
03:10	20.5	20.5	20.5	87	17.3	3	8	248	0.00	29.512 
03:15	20.5	20.5	20.5	87	17.3	3	14	248	0.00	29.502 
03:20	20.5	20.5	20.5	87	17.3	2	9	248	0.00	29.502 
03:25	20.6	20.6	20.6	87	17.4	3	11	248	0.00	29.502 
03:30	20.6	20.6	20.6	87	17.4	3	8	248	0.00	29.502 
03:35	20.8	15.1	20.8	87	17.6	4	12	248	0.00	29.502 
03:40	20.8	20.8	20.8	87	17.6	3	11	248	0.00	29.502 
03:45	20.8	20.8	20.8	87	17.6	2	9	248	0.00	29.497 
03:50	20.8	15.1	20.8	87	17.6	4	9	248	0.00	29.497 
03:55	20.8	20.8	20.8	87	17.6	2	10	248	0.00	29.497 
04:00	20.8	20.8	20.8	88	17.8	3	9	248	0.00	29.483 
04:05	21.0	21.0	21.0	88	18.0	3	9	248	0.00	29.483 
04:10	21.0	21.0	21.0	88	18.0	2	6	248	0.00	29.483 
04:15	21.0	21.0	21.0	88	18.0	3	9	248	0.00	29.470 
04:20	21.0	21.0	21.0	88	18.0	3	11	248	0.00	29.470 
04:25	21.1	21.1	21.1	88	18.1	3	14	248	0.00	29.470 
04:30	21.1	21.1	21.1	88	18.1	3	9	248	0.00	29.466 
04:35	21.1	21.1	21.1	88	18.1	3	11	248	0.00	29.466 
04:40	21.3	14.5	21.3	88	18.3	5	10	248	0.00	29.466 
04:45	21.3	21.3	21.3	88	18.3	3	9	248	0.00	29.456 
04:50	21.4	21.4	21.4	88	18.4	3	7	248	0.00	29.456 
04:55	21.4	21.4	21.4	88	18.4	3	12	248	0.00	29.456 
05:00	21.6	21.6	21.6	88	18.6	3	10	248	0.00	29.450 
05:05	21.6	21.6	21.6	88	18.6	2	6	248	0.00	29.450 
05:10	21.8	16.3	21.8	88	18.8	4	11	248	0.00	29.450 
05:15	21.8	21.8	21.8	88	18.8	3	9	248	0.00	29.439 
05:20	21.9	16.4	21.9	88	18.9	4	14	248	0.00	29.439 
05:25	21.9	21.9	21.9	88	18.9	3	10	248	0.00	29.439 
05:30	22.1	22.1	22.1	88	19.1	3	9	248	0.00	29.436 
05:35	22.2	22.2	22.2	88	19.2	3	9	248	0.00	29.436 
05:40	22.2	22.2	22.2	88	19.2	3	9	248	0.00	29.436 
05:45	22.2	16.8	22.2	88	19.2	4	10	248	0.00	29.434 
05:50	22.4	22.4	22.4	88	19.4	3	9	248	0.00	29.434 
05:55	22.4	22.4	22.4	88	19.4	2	7	248	0.00	29.434 
06:00	22.4	22.4	22.4	88	19.4	3	11	248	0.00	29.430 
06:05	22.5	22.5	22.5	88	19.5	2	6	248	0.00	29.430 
06:10	22.5	22.5	22.5	88	19.5	2	7	248	0.00	29.430 
06:15	22.5	22.5	22.5	88	19.5	3	10	248	0.00	29.419 
06:20	22.5	22.5	22.5	89	19.8	2	8	248	0.00	29.419 
06:25	22.5	22.5	22.5	89	19.8	2	11	248	0.00	29.419 
06:30	22.7	22.7	22.7	89	20.0	3	6	248	0.00	29.417 
06:35	22.7	22.7	22.7	89	20.0	2	6	248	0.00	29.417 
06:40	22.9	22.9	22.9	89	20.2	2	6	248	0.00	29.417 
06:45	22.9	22.9	22.9	89	20.2	3	10	248	0.00	29.414 
06:50	23.0	23.0	23.0	89	20.3	3	8	248	0.00	29.414 
06:55	23.0	23.0	23.0	89	20.3	2	7	248	0.00	29.414 
07:00	23.2	23.2	23.2	89	20.4	3	6	248	0.00	29.408 
07:05	23.3	23.3	23.3	89	20.5	2	9	248	0.00	29.408 
07:10	23.5	23.5	23.5	89	20.7	2	7	248	0.00	29.408 
07:15	23.5	23.5	23.5	89	20.7	2	6	248	0.00	29.409 
07:20	23.6	23.6	23.6	89	20.8	3	7	248	0.00	29.409 
07:25	23.8	23.8	23.8	90	21.3	2	7	248	0.00	29.409 
07:30	23.9	23.9	23.9	90	21.4	1	4	248	0.00	29.402 
07:35	23.9	23.9	23.9	90	21.4	2	5	248	0.00	29.402 
07:40	24.1	24.1	24.1	90	21.6	1	6	270	0.00	29.402 
07:45	24.2	24.2	24.2	90	21.7	2	8	248	0.00	29.405 
07:50	24.2	24.2	24.2	91	22.0	2	6	248	0.00	29.405 
07:55	24.4	24.4	24.4	90	21.9	2	7	248	0.00	29.405 
08:00	24.5	24.5	24.5	90	22.0	2	5	248	0.00	29.405 
08:05	24.7	24.7	24.7	91	22.5	1	6	248	0.00	29.405 
08:10	24.7	24.7	24.7	91	22.5	2	6	248	0.00	29.405 
08:15	24.8	24.8	24.8	91	22.6	1	4	248	0.00	29.414 
08:20	25.0	25.0	25.0	91	22.8	1	4	248	0.00	29.414 
08:25	25.1	25.1	25.1	91	22.9	1	4	270	0.00	29.414 
08:30	25.3	25.3	25.3	91	23.0	2	5	248	0.00	29.418 
08:35	25.6	25.6	25.6	91	23.3	2	9	248	0.00	29.418 
08:40	25.8	25.8	25.8	92	23.8	3	6	248	0.00	29.418 
08:45	26.0	26.0	26.0	91	23.7	2	3	248	0.00	29.412 
08:50	26.1	26.1	26.1	91	23.8	1	4	248	0.00	29.412 
08:55	26.3	26.3	26.3	91	24.0	2	5	248	0.00	29.412 
09:00	26.3	26.3	26.3	91	24.0	1	4	248	0.00	29.416 
09:05	26.4	26.4	26.4	91	24.1	1	4	248	0.00	29.416 
09:10	26.6	26.6	26.6	91	24.3	2	4	270	0.00	29.416 
09:15	26.7	26.7	26.7	91	24.4	1	4	270	0.00	29.417 
09:20	26.9	26.9	26.9	91	24.6	1	4	270	0.00	29.417 
09:25	27.0	27.0	27.0	90	24.5	2	4	270	0.00	29.417 
09:30	27.2	27.2	27.2	89	24.4	2	6	248	0.00	29.420 
09:35	27.5	27.5	27.5	88	24.4	2	6	248	0.00	29.420 
09:40	27.6	27.6	27.6	87	24.2	3	6	270	0.00	29.420 
09:45	27.8	27.8	27.8	84	23.6	3	7	270	0.00	29.420 
09:50	28.1	28.1	28.1	82	23.3	3	6	270	0.00	29.420 
09:55	28.2	28.2	28.2	80	22.8	2	6	270	0.00	29.420 
10:00	28.4	23.9	28.4	77	22.1	4	7	270	0.00	29.419 
10:05	28.4	23.9	28.4	74	21.2	4	10	270	0.00	29.419 
10:10	28.2	22.6	28.2	71	20.0	5	10	270	0.00	29.419 
10:15	28.2	22.6	28.2	70	19.7	5	13	270	0.00	29.424 
10:20	28.1	21.6	28.1	68	18.9	6	10	270	0.00	29.424 
10:25	27.9	22.3	27.9	65	17.7	5	11	270	0.00	29.424 
10:30	27.9	23.3	27.9	65	17.7	4	9	270	0.00	29.427 
10:35	27.9	21.3	27.9	62	16.6	6	19	270	0.00	29.427 
10:40	27.6	21.9	27.6	59	15.2	5	10	270	0.00	29.427 
10:45	27.5	22.9	27.5	57	14.3	4	10	270	0.00	29.431 
10:50	27.5	21.8	27.5	58	14.7	5	11	270	0.00	29.431 
10:55	27.8	27.8	27.8	55	13.8	3	10	248	0.00	29.431 
11:00	27.6	27.6	27.6	57	14.4	3	6	315	0.00	29.441 
11:05	27.5	27.5	27.5	59	15.1	3	12	270	0.00	29.441 
11:10	27.3	21.6	27.3	56	13.7	5	11	270	0.00	29.441 
11:15	27.0	19.5	27.0	60	15.0	7	19	292	0.00	29.444 
11:20	27.0	20.3	27.0	58	14.2	6	11	292	0.00	29.444 
11:25	27.0	22.3	27.0	55	13.0	4	12	270	0.00	29.444 
11:30	27.0	22.3	27.0	55	13.0	4	9	338	0.00	29.443 
11:35	26.6	20.7	26.6	54	12.2	5	11	292	0.00	29.443 
11:40	26.6	20.7	26.6	51	10.9	5	10	292	0.00	29.443 
11:45	26.9	22.2	26.9	53	12.1	4	13	292	0.00	29.453 
11:50	26.6	19.8	26.6	54	12.2	6	13	292	0.00	29.453 
11:55	26.1	19.2	26.1	51	10.5	6	15	292	0.00	29.453 
12:00	25.8	19.8	25.8	50	9.8	5	13	292	0.00	29.469 
12:05	25.8	19.8	25.8	53	11.1	5	12	292	0.00	29.469 
12:10	25.7	19.7	25.7	51	10.1	5	11	270	0.00	29.469 
12:15	25.7	19.7	25.7	55	11.8	5	11	292	0.00	29.474 
12:20	25.6	19.6	25.6	54	11.3	5	13	292	0.00	29.474 
12:25	25.1	18.0	25.1	52	10.0	6	17	270	0.00	29.474 
12:30	24.5	17.3	24.5	53	9.8	6	14	315	0.00	29.475 
12:35	24.4	17.2	24.4	51	8.9	6	14	270	0.00	29.475 
12:40	24.1	16.8	24.1	46	6.3	6	13	270	0.00	29.475 
12:45	24.2	17.9	24.2	49	7.8	5	10	270	0.00	29.479 
12:50	24.4	18.1	24.4	50	8.5	5	10	270	0.00	29.479 
12:55	24.7	18.5	24.7	50	8.7	5	10	270	0.00	29.479 
13:00	24.7	19.6	24.7	51	9.2	4	10	270	0.00	29.483 
13:05	24.8	18.6	24.8	52	9.7	5	10	270	0.00	29.483 
13:10	25.1	20.1	25.1	53	10.4	4	9	292	0.00	29.483 
13:15	24.8	17.7	24.8	52	9.7	6	13	270	0.00	29.490 
13:20	24.2	17.9	24.2	53	9.6	5	11	270	0.00	29.490 
13:25	24.2	17.9	24.2	54	10.0	5	11	270	0.00	29.490 
13:30	24.1	17.8	24.1	55	10.3	5	10	270	0.00	29.493 
13:35	24.4	18.1	24.4	56	11.0	5	12	270	0.00	29.493 
13:40	23.8	16.5	23.8	63	13.1	6	11	292	0.00	29.493 
13:45	21.8	15.1	21.8	72	14.2	5	12	292	0.00	29.518 
13:50	20.5	13.6	20.5	74	13.6	5	15	270	0.00	29.518 
13:55	20.2	13.2	20.2	74	13.3	5	12	292	0.00	29.518 
14:00	20.0	11.9	20.0	72	12.5	6	18	315	0.00	29.528 
14:05	20.2	14.4	20.2	72	12.6	4	9	338	0.00	29.528 
14:10	20.5	14.8	20.5	69	12.0	4	11	292	0.00	29.528 
14:15	20.6	13.7	20.6	65	10.7	5	11	315	0.00	29.539 
14:20	20.6	20.6	20.6	64	10.4	3	11	292	0.00	29.539 
14:25	20.8	20.8	20.8	63	10.2	3	7	315	0.00	29.539 
14:30	21.0	15.4	21.0	62	10.1	4	11	315	0.00	29.546 
14:35	21.3	15.7	21.3	61	10.0	4	7	270	0.00	29.546 
14:40	21.4	21.4	21.4	62	10.4	3	12	292	0.00	29.546 
14:45	21.3	15.7	21.3	59	9.2	4	7	270	0.00	29.556 
14:50	21.1	15.5	21.1	60	9.4	4	11	270	0.00	29.556 
14:55	20.8	15.1	20.8	64	10.6	4	10	270	0.00	29.556 
15:00	20.6	20.6	20.6	65	10.7	3	8	315	0.00	29.570 
15:05	20.5	14.8	20.5	67	11.3	4	10	292	0.00	29.570 
15:10	19.7	13.9	19.7	70	11.5	4	10	338	0.00	29.570 
15:15	19.4	13.5	19.4	72	11.9	4	10	315	0.00	29.584 
15:20	19.7	19.7	19.7	68	10.9	3	6	315	0.00	29.584 
15:25	20.0	20.0	20.0	63	9.5	3	8	315	0.00	29.584 
15:30	20.2	14.4	20.2	60	8.6	4	10	270	0.00	29.591 
15:35	20.0	14.2	20.0	60	8.4	4	9	292	0.00	29.591 
15:40	19.5	13.6	19.5	63	9.0	4	10	270	0.00	29.591 
15:45	19.2	19.2	19.2	68	10.4	3	7	292	0.00	29.611 
15:50	18.9	18.9	18.9	72	11.4	3	10	292	0.00	29.611 
15:55	18.6	18.6	18.6	73	11.4	2	5	315	0.00	29.611 
16:00	18.4	18.4	18.4	74	11.5	3	7	270	0.00	29.622 
16:05	18.3	18.3	18.3	74	11.4	2	7	292	0.00	29.622 
16:10	18.3	18.3	18.3	75	11.7	2	6	292	0.00	29.622 
16:15	18.3	18.3	18.3	74	11.4	2	9	270	0.00	29.634 
16:20	18.0	11.9	18.0	74	11.1	4	7	270	0.00	29.634 
16:25	17.7	17.7	17.7	78	12.0	2	6	292	0.00	29.634 
16:30	17.3	17.3	17.3	80	12.2	2	6	338	0.00	29.651 
16:35	17.5	17.5	17.5	81	12.7	2	5	270	0.00	29.651 
16:40	17.5	11.3	17.5	82	13.0	4	11	292	0.00	29.651 
16:45	17.5	10.0	17.5	79	12.1	5	10	270	0.00	29.657 
16:50	17.3	17.3	17.3	75	10.8	3	6	270	0.00	29.657 
16:55	17.0	17.0	17.0	71	9.2	3	7	270	0.00	29.657 
17:00	17.0	17.0	17.0	70	8.9	3	6	270	0.00	29.670 
17:05	17.0	17.0	17.0	69	8.6	3	5	270	0.00	29.670 
17:10	16.9	10.6	16.9	69	8.5	4	7	270	0.00	29.670 
17:15	16.7	10.4	16.7	68	8.0	4	10	270	0.00	29.686 
17:20	16.4	16.4	16.4	68	7.7	3	7	270	0.00	29.686 
17:25	16.1	16.1	16.1	68	7.4	3	7	270	0.00	29.686 
17:30	15.7	7.9	15.7	66	6.4	5	10	270	0.00	29.702 
17:35	15.6	7.8	15.6	64	5.6	5	11	270	0.00	29.702 
17:40	15.4	8.9	15.4	63	5.1	4	10	270	0.00	29.702 
17:45	15.2	8.7	15.2	63	4.9	4	8	292	0.00	29.718 
17:50	15.1	15.1	15.1	63	4.8	3	6	270	0.00	29.718 
17:55	14.9	8.3	14.9	63	4.6	4	10	270	0.00	29.718 
18:00	14.8	8.2	14.8	63	4.5	4	8	270	0.00	29.731 
18:05	14.4	14.4	14.4	63	4.1	3	10	315	0.00	29.731 
18:10	14.1	14.1	14.1	63	3.9	3	10	270	0.00	29.731 
18:15	14.1	14.1	14.1	63	3.9	3	7	270	0.00	29.739 
18:20	14.0	7.3	14.0	62	3.4	4	7	270	0.00	29.739 
18:25	14.0	14.0	14.0	61	3.1	3	6	270	0.00	29.739 
18:30	13.8	13.8	13.8	61	2.9	3	6	270	0.00	29.750 
18:35	13.8	13.8	13.8	61	2.9	3	6	270	0.00	29.750 
18:40	13.6	13.6	13.6	61	2.7	3	7	270	0.00	29.750 
18:45	13.5	13.5	13.5	61	2.6	3	10	270	0.00	29.767 
18:50	13.3	13.3	13.3	62	2.7	3	6	270	0.00	29.767 
18:55	13.1	13.1	13.1	63	2.9	2	5	270	0.00	29.767 
19:00	12.9	12.9	12.9	64	3.1	2	5	270	0.00	29.777 
19:05	12.8	12.8	12.8	64	3.0	2	5	270	0.00	29.777 
19:10	12.6	12.6	12.6	64	2.8	1	4	270	0.00	29.777 
19:15	12.6	12.6	12.6	65	3.1	1	3	270	0.00	29.784 
19:20	12.4	12.4	12.4	65	2.9	1	3	248	0.00	29.784 
19:25	12.4	12.4	12.4	65	2.9	1	3	248	0.00	29.784 
19:30	12.3	12.3	12.3	65	2.8	1	3	248	0.00	29.796 
19:35	12.3	12.3	12.3	65	2.8	2	4	248	0.00	29.796 
19:40	12.3	12.3	12.3	65	2.8	1	4	248	0.00	29.796 
19:45	12.3	12.3	12.3	65	2.8	1	4	248	0.00	29.801 
19:50	12.4	12.4	12.4	65	2.9	1	3	248	0.00	29.801 
19:55	12.3	12.3	12.3	65	2.8	1	2	248	0.00	29.801 
20:00	12.4	12.4	12.4	65	2.9	1	3	248	0.00	29.808 
20:05	12.4	12.4	12.4	65	2.9	1	2	248	0.00	29.808 
20:10	12.4	12.4	12.4	65	2.9	1	2	248	0.00	29.808 
20:15	12.4	12.4	12.4	64	2.6	1	3	248	0.00	29.811 
20:20	12.6	12.6	12.6	63	2.4	2	4	248	0.00	29.811 
20:25	12.8	12.8	12.8	62	2.3	1	3	248	0.00	29.811 
20:30	12.8	12.8	12.8	60	1.6	2	11	248	0.00	29.813 
20:35	12.9	12.9	12.9	58	0.9	3	7	270	0.00	29.813 
20:40	12.9	12.9	12.9	57	0.6	2	5	270	0.00	29.813 
20:45	12.8	12.8	12.8	56	0.1	2	5	270	0.00	29.815 
20:50	12.8	12.8	12.8	56	0.1	1	3	270	0.00	29.815 
20:55	12.6	12.6	12.6	55	-0.5	2	4	270	0.00	29.815 
21:00	12.6	12.6	12.6	55	-0.5	1	3	248	0.00	29.814 
21:05	12.4	12.4	12.4	54	-1.0	1	3	248	0.00	29.814 
21:10	12.4	12.4	12.4	54	-1.0	1	3	248	0.00	29.814 
21:15	12.1	12.1	12.1	55	-0.9	1	4	248	0.00	29.817 
21:20	11.9	11.9	11.9	54	-1.5	2	4	248	0.00	29.817 
21:25	11.6	11.6	11.6	53	-2.2	3	7	248	0.00	29.817 
21:30	11.2	11.2	11.2	53	-2.6	2	9	270	0.00	29.826 
21:35	10.9	10.9	10.9	53	-2.8	2	5	270	0.00	29.826 
21:40	10.7	10.7	10.7	53	-3.0	2	4	248	0.00	29.826 
21:45	10.4	10.4	10.4	53	-3.3	2	5	248	0.00	29.834 
21:50	10.2	10.2	10.2	53	-3.5	2	3	270	0.00	29.834 
21:55	10.0	10.0	10.0	53	-3.7	1	3	270	0.00	29.834 
22:00	9.9	9.9	9.9	53	-3.8	2	6	270	0.00	29.844 
22:05	9.7	9.7	9.7	54	-3.6	1	4	270	0.00	29.844 
22:10	9.5	9.5	9.5	53	-4.1	2	4	248	0.00	29.844 
22:15	9.5	9.5	9.5	53	-4.1	2	5	270	0.00	29.846 
22:20	9.3	9.3	9.3	53	-4.3	2	4	270	0.00	29.846 
22:25	9.3	9.3	9.3	53	-4.3	2	5	270	0.00	29.846 
22:30	9.2	9.2	9.2	53	-4.4	2	4	270	0.00	29.860 
22:35	9.2	9.2	9.2	54	-4.0	1	4	270	0.00	29.860 
22:40	9.0	9.0	9.0	54	-4.2	2	4	270	0.00	29.860 
22:45	8.8	8.8	8.8	54	-4.4	1	3	270	0.00	29.860 
22:50	8.8	8.8	8.8	54	-4.4	1	3	270	0.00	29.860 
22:55	8.6	8.6	8.6	54	-4.6	1	3	248	0.00	29.860 
23:00	8.6	8.6	8.6	54	-4.6	1	3	248	0.00	29.848 
23:05	8.4	8.4	8.4	55	-4.4	1	3	248	0.00	29.848 
23:10	8.4	8.4	8.4	55	-4.4	1	3	248	0.00	29.848 
23:15	8.3	8.3	8.3	55	-4.5	1	2	248	0.00	29.848 
23:20	8.1	8.1	8.1	55	-4.7	0	2	248	0.00	29.848 
23:25	8.1	8.1	8.1	56	-4.3	1	3	248	0.00	29.848 
23:30	7.9	7.9	7.9	55	-4.9	1	4	248	0.00	29.862 
23:35	7.9	7.9	7.9	56	-4.5	1	3	248	0.00	29.862 
23:40	7.7	7.7	7.7	56	-4.7	1	3	270	0.00	29.862 
23:45	7.7	7.7	7.7	56	-4.7	1	2	270	0.00	29.863 
23:50	7.6	7.6	7.6	56	-4.8	1	3	270	0.00	29.863 
23:55	7.4	7.4	7.4	56	-5.0	1	3	270	0.00	29.863 

CoCoRaHS
IN-AL-39
A2 Web Hosting
Creative Commons License
GoDaddy
search engine by freefind advanced

loaded 2018-11-20 07:19:44 • last modified 2010-11-18 10:43:29
Privacy PolicyDisclaimer
• wx.awcolley.com is powered by PmWiki v.2002016 •
• all content (unless otherwise noted) © 2018 A W Colley